Regional Weather Roundup
Issued by NWS

Home | Current Version | Previous Version | Graphics & Text | Print | Product List | Glossary Off
Versions: 1 2 3 4 5 6 7 8 9 10 11 12 13 14 15 16 17 18 19 20 21 22 23 24 25 26 27 28 29 30 31 32 33 34 35 36 37 38 39 40 41 42 43 44 45 46 47 48 49 50

000
ASUS43 KMKX 281600
RWRWI

WISCONSIN REGIONAL WEATHER ROUNDUP
NATIONAL WEATHER SERVICE MILWAUKEE/SULLIVAN WI
1100 AM CDT TUE MAR 28 2017

NOTE: "FAIR" INDICATES FEW OR NO CLOUDS BELOW 12,000 FEET WITH NO
SIGNIFICANT WEATHER AND/OR OBSTRUCTIONS TO VISIBILITY.

WIZ001-002-006>008-014>016-023>028-281700-
NORTHWEST WISCONSIN

CITY           SKY/WX    TMP DP  RH WIND       PRES   REMARKS
SUPERIOR ARPT  SUNNY     47  34  61 CALM      30.16F
ASHLAND        SUNNY     50  32  50 VRB3      30.17S
HAYWARD        SUNNY     50  29  44 SE5       30.16R
SIREN          SUNNY     49  32  53 CALM      30.15S
CUMBERLAND     SUNNY     45  32  61 CALM      30.15R
RICE LAKE      SUNNY     45  34  64 CALM      30.17R
CHETEK         SUNNY     46  35  66 SE7       30.16S
LADYSMITH      SUNNY     47  36  65 E3        30.17R
EAU CLAIRE     PTSUNNY   39  38  96 VRB3      30.16S
MENOMONIE      SUNNY     44  37  74 CALM      30.16S
NEW RICHMOND   SUNNY     50  37  60 CALM      30.15S
OSCEOLA        SUNNY     49  39  67 CALM      30.18S
$$

WIZ003>005-009-010-017-018-281700-
NORTH CENTRAL WISCONSIN

CITY           SKY/WX    TMP DP  RH WIND       PRES   REMARKS
MANITOWISH WTR SUNNY     46  31  56 S6        30.13F
ARBOR VITAE    SUNNY     45  32  61 SW3       30.14R
WOODRUFF       SUNNY     45  32  61 SW3       30.14R
RHINELANDER    SUNNY     47  32  56 E7        30.15R
EAGLE RIVER    SUNNY     46  30  54 SE3       30.14R
LAND O LAKES   SUNNY     47  30  51 SE3       30.15S
PHILLIPS       SUNNY     44  32  62 CALM      30.15R
TOMAHAWK       SUNNY     44  32  61 E3        30.16S
MEDFORD        SUNNY     41  36  80 CALM      30.15R
MERRILL        SUNNY     42  33  68 CALM      30.15S
$$

WIZ029-030-035-036-043>047-281700-
CENTRAL WISCONSIN

CITY           SKY/WX    TMP DP  RH WIND       PRES   REMARKS
WAUSAU         SUNNY     45  35  68 W5        30.14R
MOSINEE        MOSUNNY   41  39  93 CALM      30.16S
MARSHFIELD     CLOUDY    40  37  89 VRB3      30.15S
STEVENS POINT  SUNNY     44  32  62 E3        30.16R
WAUPACA        SUNNY     48  37  65 N5        30.15S
WAUTOMA        SUNNY     47  36  65 VRB3      30.16R
WISC RAPIDS    MOSUNNY   47  37  68 VRB3      30.17R
CAMP DOUGLAS   MOSUNNY   46  37  71 NE6       30.15R
$$

WIZ011>013-019>022-031-037>040-048>050-281700-
NORTHEAST WISCONSIN

CITY           SKY/WX    TMP DP  RH WIND       PRES   REMARKS
ANTIGO         SUNNY     42  36  81 N3        30.15R
SHAWANO        SUNNY     45  35  68 E5        30.16S
OCONTO         SUNNY     36  32  85 E6        30.17R WCI  32
STURGEON BAY   CLOUDY    35  34  96 NE6       30.18R WCI  30
GREEN BAY      SUNNY     44  38  79 NE9       30.16R
MANITOWOC      NOT AVBL
APPLETON       MOSUNNY   45  34  65 N6        30.12S
CLINTONVILLE   SUNNY     45  34  65 NE6       30.15R
OSHKOSH        SUNNY     44  37  76 E8        30.14R
$$

WIZ032>034-041-042-053>061-281700-
SOUTHWEST WISCONSIN

CITY           SKY/WX    TMP DP  RH WIND       PRES   REMARKS
LA CROSSE      MOSUNNY   46  40  79 NW5       30.17R
SPARTA         MOSUNNY   48  38  67 NE8       30.16R
VIROQUA        PTSUNNY   47  37  69 E8        30.14R
BOSCOBEL       CLOUDY    46  37  71 E8        30.16R
PRAIRIE DU CHI CLOUDY    46  42  86 E7        30.14S
PLATTEVILLE    CLOUDY    44  44  98 NE9       30.14R
$$

WIZ056-057-062-063-064-067-068-281700-
SOUTH CENTRAL WISCONSIN

CITY           SKY/WX    TMP DP  RH WIND       PRES   REMARKS
REEDSBURG      CLOUDY    44  38  78 N6        30.14S
BARABOO/DELLS  CLOUDY    43  36  75 E8        30.14S
LONE ROCK      NOT AVBL
MINERAL POINT  CLOUDY    43  41  93 NE7       30.14R
MADISON        PTSUNNY   46  37  71 E7        30.14R
MIDDLETON      CLOUDY    45  38  78 NE7       30.14S
WATERTOWN      MOSUNNY   46  38  74 NE7       30.12F
MONROE         CLOUDY    41  37  87 NE10      30.13R
JANESVILLE     CLOUDY    46  37  71 N9        30.13S
$$

WIZ051-052-058>065-066-070>072-281700-
SOUTHEAST WISCONSIN

CITY           SKY/WX    TMP DP  RH WIND       PRES   REMARKS
MILWAUKEE      PTSUNNY   43  36  76 NE13      30.14R
WAUKESHA       MOSUNNY   45  36  70 NE7       30.13S
MILWAUKEE/TIMM MOSUNNY   45  36  70 NE7       30.14R
RACINE         CLOUDY    42  36  79 N13       30.15R
KENOSHA        CLOUDY    44  37  76 N8        30.13R
FOND DU LAC    SUNNY     45  36  70 NE9       30.14S
SHEBOYGAN      SUNNY     43  37  79 NE8       30.14R
WEST BEND      SUNNY     46  36  66 E7        30.13R
JUNEAU         SUNNY     44  37  75 N5        30.14S
$$

LSZ147-162-281700-
LAKE SUPERIOR

STATION/POSITION TIME  TEMP    WIND        PRES    WAVE
                       AIR SEA DIR/SP/G            HT/PER
                 (UTC) (F)     (DEG/KT/KT) (MB)    (FT/S)
DEVILS ISLAND    1500   38     200/  7/  8 1021.8F
PORT WING        1530   35     290/  8/ 10 1021.7R
SAXON HARBOR     1540   36      30/  1/  3 1021.7R
$$

LMZ867-665-643>646-281700-
LAKE MICHIGAN

STATION/POSITION TIME  TEMP    WIND        PRES    WAVE
                       AIR SEA DIR/SP/G            HT/PER
                 (UTC) (F)     (DEG/KT/KT) (MB)    (FT/S)
CHAMBERS ISLAND  1540   32     350/  7/  7 1021.3R
NORTHPORT PIER   1540   33     320/  2/  3 1021.7R
SISTER BAY       1451   35     110/  6/  9   N/A
KEWAUNEE LAKESHO 1530   33      30/  7/ 10 1020.8R
SHEBOYGAN LAKESH 1500   35      20/ 13/ 15 1021.1R
PORT WASHINGTON  1530   40      40/ 11/ 15 1021.7R
MILWAUKEE LAKESH 1520   38      30/ 12/ 15   N/A
KENOSHA   LAKESH 1500   39      20/ 12/ 14 1020.0
$$

TC  - TEMPERATURE IN CELSIUS
VSB - VISIBILITY IN STATUTE MILES
WCI - WIND CHILL INDEX
HX  - HEAT INDEX





USA.gov is the U.S. government's official web portal to all federal, state and local government web resources and services.